UAE719 OMDB-HKJK

Flight info

Callsign UAE719
Flight time N/A
Altitude 34000
Route ANVIX R401 GIDIS G783 UKRAG/N0488F350 L710 KUKDI/N0484F340 B400 ITUVO/N0487F360 B400 RIGAM B403 BOMIX UB403 MAV UP312 WAV WAJI1A
Aircraft B77W/H-SDE1E2E3FGHIJ2J3J4J5M1RWXY/LB1D1

Departure

Time 2026-04-26 15:51
Airport Dubai International Airport (OMDB)

Arrival

Time N/A
Airport Jomo Kenyatta International Airport (HKJK)
Time Latitude Longitude Altitude Speed Heading
2026-04-26 15:21 25.24391 55.37295 31 ft 0 kts 211°
2026-04-26 15:41 25.24409 55.37307 31 ft 4 kts 211°
2026-04-26 15:42 25.24432 55.37323 30 ft 4 kts 219°
2026-04-26 15:42 25.24452 55.37340 31 ft 4 kts 190°
2026-04-26 15:42 25.24474 55.37339 31 ft 4 kts 149°
2026-04-26 15:42 25.24489 55.37318 31 ft 4 kts 114°
2026-04-26 15:43 25.24496 55.37304 31 ft 1 kts 122°
2026-04-26 15:43 25.24496 55.37303 31 ft 0 kts 122°
2026-04-26 15:46 25.24491 55.37312 31 ft 3 kts 122°
2026-04-26 15:46 25.24483 55.37327 31 ft 4 kts 122°
2026-04-26 15:47 25.24454 55.37379 30 ft 8 kts 122°
2026-04-26 15:47 25.24419 55.37510 29 ft 11 kts 95°
2026-04-26 15:47 25.24414 55.37601 29 ft 13 kts 97°
2026-04-26 15:48 25.24379 55.37695 29 ft 14 kts 120°
2026-04-26 15:48 25.24329 55.37792 26 ft 11 kts 97°
2026-04-26 15:48 25.24343 55.37823 26 ft 1 kts 47°
2026-04-26 15:48 25.24351 55.37833 27 ft 2 kts 44°
2026-04-26 15:49 25.24399 55.37878 28 ft 16 kts 40°
2026-04-26 15:49 25.24514 55.37961 29 ft 24 kts 32°
2026-04-26 15:49 25.24621 55.38037 28 ft 19 kts 33°
2026-04-26 15:49 25.24637 55.38049 28 ft 0 kts 33°
2026-04-26 15:50 25.24651 55.38059 28 ft 10 kts 33°
2026-04-26 15:50 25.24745 55.38113 31 ft 1 kts 353°
2026-04-26 15:50 25.24789 55.38064 30 ft 16 kts 297°
2026-04-26 15:50 25.24792 55.38058 30 ft 0 kts 297°
2026-04-26 15:51 25.24926 55.37802 30 ft 90 kts 301°
2026-04-26 15:51 25.25415 55.36897 37 ft 185 kts 301°
2026-04-26 15:51 25.26184 55.35655 868 ft 189 kts 306°
2026-04-26 15:51 25.26902 55.34451 2203 ft 186 kts 298°
2026-04-26 15:52 25.27531 55.33257 3109 ft 176 kts 300°
2026-04-26 15:52 25.28157 55.32088 3754 ft 181 kts 301°
2026-04-26 15:52 25.28827 55.30857 4014 ft 192 kts 300°
2026-04-26 15:52 25.29187 55.29966 3980 ft 191 kts 282°
2026-04-26 15:53 25.28916 55.28034 4022 ft 199 kts 250°
2026-04-26 15:53 25.28332 55.26658 4013 ft 202 kts 249°
2026-04-26 15:53 25.27746 55.25246 4082 ft 201 kts 249°
2026-04-26 15:53 25.27159 55.23849 4674 ft 202 kts 249°
2026-04-26 15:54 25.26564 55.22441 5280 ft 204 kts 250°
2026-04-26 15:54 25.25954 55.20997 5830 ft 213 kts 250°
2026-04-26 15:54 25.25294 55.19428 6139 ft 233 kts 249°
2026-04-26 15:54 25.24524 55.17818 6628 ft 245 kts 236°
2026-04-26 15:55 25.23103 55.16694 7032 ft 267 kts 200°
2026-04-26 15:55 25.21239 55.16543 7007 ft 270 kts 174°
2026-04-26 15:55 25.19389 55.17041 7329 ft 279 kts 156°
2026-04-26 15:55 25.17846 55.18380 7843 ft 293 kts 124°
2026-04-26 15:56 25.16887 55.20389 8310 ft 301 kts 114°
2026-04-26 15:56 25.15935 55.22480 8950 ft 310 kts 117°
2026-04-26 15:56 25.14915 55.24585 9818 ft 311 kts 117°
2026-04-26 15:56 25.13910 55.26659 10626 ft 313 kts 117°
2026-04-26 15:57 25.12881 55.28796 11388 ft 317 kts 118°
2026-04-26 15:57 25.11841 55.30957 12166 ft 320 kts 118°
2026-04-26 15:57 25.10797 55.33128 12947 ft 323 kts 118°
2026-04-26 15:57 25.10131 55.34605 13480 ft 325 kts 116°
2026-04-26 15:58 25.08888 55.37673 14458 ft 330 kts 115°
2026-04-26 15:58 25.07946 55.40004 15171 ft 335 kts 115°
2026-04-26 15:58 25.06989 55.42363 15874 ft 341 kts 115°
2026-04-26 15:58 25.06034 55.44827 16150 ft 362 kts 114°
2026-04-26 15:59 25.05040 55.47436 16346 ft 385 kts 114°
2026-04-26 15:59 25.03966 55.50233 16500 ft 404 kts 116°
2026-04-26 15:59 25.02463 55.52884 16593 ft 415 kts 136°
2026-04-26 15:59 25.00101 55.54713 17020 ft 419 kts 160°
2026-04-26 16:00 24.97277 55.55381 17602 ft 417 kts 183°
2026-04-26 16:00 24.94438 55.54993 18228 ft 409 kts 192°
2026-04-26 16:00 24.91572 55.54628 18563 ft 420 kts 186°
2026-04-26 16:00 24.88626 55.54529 19181 ft 424 kts 184°
2026-04-26 16:01 24.85673 55.54528 19891 ft 426 kts 183°
2026-04-26 16:01 24.82702 55.54541 20560 ft 428 kts 183°
2026-04-26 16:01 24.79748 55.54539 21177 ft 432 kts 184°
2026-04-26 16:01 24.76731 55.54517 21792 ft 435 kts 184°
2026-04-26 16:02 24.73688 55.54479 22414 ft 439 kts 185°
2026-04-26 16:02 24.70624 55.54431 23011 ft 442 kts 185°
2026-04-26 16:02 24.67536 55.54377 23584 ft 446 kts 185°
2026-04-26 16:02 24.66487 55.54358 23743 ft 447 kts 185°
2026-04-26 16:03 24.61285 55.54263 24490 ft 454 kts 185°
2026-04-26 16:03 24.58112 55.54205 24917 ft 458 kts 185°
2026-04-26 16:03 24.54918 55.54147 25368 ft 462 kts 185°
2026-04-26 16:03 24.52788 55.54109 25661 ft 464 kts 185°
2026-04-26 16:04 24.48446 55.54032 26249 ft 468 kts 185°
2026-04-26 16:04 24.45221 55.53976 26685 ft 472 kts 185°
2026-04-26 16:04 24.41924 55.53918 27061 ft 476 kts 185°
2026-04-26 16:04 24.38599 55.53859 27459 ft 480 kts 185°
2026-04-26 16:05 24.35251 55.53800 27857 ft 483 kts 185°
2026-04-26 16:05 24.31880 55.53741 28261 ft 486 kts 185°
2026-04-26 16:05 24.28488 55.53681 28622 ft 490 kts 185°
2026-04-26 16:05 24.25063 55.53620 28847 ft 496 kts 185°
2026-04-26 16:06 24.21595 55.53558 28888 ft 500 kts 185°
2026-04-26 16:06 24.14718 55.53442 28904 ft 495 kts 185°
2026-04-26 16:07 24.07844 55.53321 28915 ft 494 kts 185°
2026-04-26 16:07 24.00996 55.52970 28917 ft 491 kts 191°
2026-04-26 16:08 23.94399 55.51296 28918 ft 485 kts 201°
2026-04-26 16:08 23.87937 55.49290 28911 ft 487 kts 199°
2026-04-26 16:09 23.81378 55.47367 28905 ft 488 kts 199°
2026-04-26 16:09 23.74825 55.45413 28898 ft 488 kts 199°
2026-04-26 16:10 23.68267 55.43455 28886 ft 489 kts 199°
2026-04-26 16:10 23.62821 55.41834 28895 ft 488 kts 199°
2026-04-26 16:11 23.55177 55.39638 28890 ft 490 kts 194°
2026-04-26 16:11 23.48313 55.39469 28893 ft 500 kts 176°
2026-04-26 16:12 23.42677 55.40981 29172 ft 511 kts 166°
2026-04-26 16:12 23.39240 55.42112 29487 ft 514 kts 167°
2026-04-26 16:12 23.32382 55.44284 30138 ft 518 kts 167°
2026-04-26 16:13 23.28886 55.45383 30509 ft 518 kts 167°
2026-04-26 16:13 23.25429 55.46472 30871 ft 518 kts 167°
2026-04-26 16:13 23.21960 55.47567 31201 ft 520 kts 167°
2026-04-26 16:13 23.18485 55.48665 31512 ft 521 kts 167°
2026-04-26 16:14 23.14998 55.49766 31842 ft 522 kts 167°
2026-04-26 16:14 23.11502 55.50870 32178 ft 523 kts 167°
2026-04-26 16:14 23.04498 55.53079 32845 ft 524 kts 167°
2026-04-26 16:15 23.00997 55.54173 33202 ft 524 kts 167°
2026-04-26 16:15 22.97484 55.55250 33518 ft 525 kts 167°
2026-04-26 16:15 22.93964 55.56319 33785 ft 527 kts 167°
2026-04-26 16:16 22.83304 55.59558 33860 ft 530 kts 167°
2026-04-26 16:16 22.76254 55.61711 33864 ft 525 kts 167°
2026-04-26 16:17 22.69178 55.63867 33857 ft 525 kts 167°
2026-04-26 16:17 22.62169 55.66000 33862 ft 525 kts 167°
2026-04-26 16:18 22.51564 55.69247 33863 ft 527 kts 167°
2026-04-26 16:19 22.40970 55.72494 33849 ft 529 kts 166°
2026-04-26 16:20 22.30346 55.75742 33847 ft 530 kts 166°
2026-04-26 16:20 22.19566 55.77841 33868 ft 524 kts 179°
2026-04-26 16:21 22.12296 55.78467 33842 ft 525 kts 178°
2026-04-26 16:21 22.04999 55.79191 33842 ft 526 kts 177°
2026-04-26 16:22 21.97725 55.79933 33831 ft 526 kts 177°
2026-04-26 16:22 21.90443 55.80669 33827 ft 526 kts 177°
2026-04-26 16:23 21.83149 55.81402 33845 ft 526 kts 177°
2026-04-26 16:23 21.75883 55.82130 33839 ft 526 kts 177°
2026-04-26 16:24 21.68611 55.82858 33838 ft 525 kts 177°
2026-04-26 16:24 21.61314 55.83573 33824 ft 525 kts 177°
2026-04-26 16:25 21.54025 55.84283 33828 ft 525 kts 177°
2026-04-26 16:25 21.46758 55.84992 33832 ft 525 kts 177°
2026-04-26 16:26 21.40788 55.85575 33834 ft 525 kts 177°
2026-04-26 16:26 21.37936 55.85853 33837 ft 525 kts 177°